When you browse on this site, cookies collect data to enhance your experience and personalize the content and advertising you see.
Visit our Privacy Policy to learn more. By continuing to use the site, you agree to this use of cookies and data.
  • In Österreich
  • Länderverzeichnis
  • Für 7 Tage
  • Wassertemperatur
  • Satellitenkarten
  • Wetterkarte
  • News
  • Widgets
  • user-avatar
    Anmelden

    Stündliche Wetter Ischgl

    Heute, 24 März, Sonntag

    Zeit Temperatur Niederschläge Wind Luftdruck Luftfeuchtigkeit
    00:00 -5°C° 0 mm 2 m/S 575 mmHg 73%
    01:00 -4°C° 0 mm 2 m/S 575 mmHg 65%
    02:00 -4°C° 0 mm 2 m/S 575 mmHg 65%
    03:00 -5°C° 0 mm 2 m/S 574 mmHg 64%
    04:00 -5°C° 0 mm 2 m/S 574 mmHg 64%
    05:00 -5°C° 0 mm 2 m/S 574 mmHg 64%
    06:00 -5°C° 0 mm 2 m/S 574 mmHg 64%
    07:00 -5°C° 0 mm 2 m/S 574 mmHg 63%
    08:00 -3°C° 0 mm 2 m/S 575 mmHg 73%
    09:00 +1°C° 0 mm 1 m/S 575 mmHg 82%
    10:00 +3°C° 0 mm 1 m/S 576 mmHg 91%
    11:00 +3°C° 0 mm 1 m/S 576 mmHg 91%
    12:00 +3°C° 0 mm 1 m/S 576 mmHg 90%
    13:00 +4°C° 0 mm 1 m/S 576 mmHg 90%
    14:00 +4°C° 0 mm 1 m/S 575 mmHg 90%
    15:00 +3°C° 0 mm 1 m/S 575 mmHg 91%
    16:00 +3°C° 0 mm 1 m/S 575 mmHg 92%
    17:00 +1°C° 0 mm 1 m/S 574 mmHg 93%
    18:00 0°C° 0 mm 1 m/S 573 mmHg 95%
    19:00 -2°C° 0 mm 1 m/S 572 mmHg 97%
    20:00 -2°C° 0 mm 1 m/S 572 mmHg 97%
    21:00 -2°C° 0 mm 1 m/S 573 mmHg 97%
    22:00 -2°C° 0 mm 1 m/S 573 mmHg 97%
    23:00 -2°C° 0 mm 1 m/S 573 mmHg 97%

    Morgen, 25 März, Montag

    Zeit Temperatur Niederschläge Wind Luftdruck Luftfeuchtigkeit
    00:00 -2°C° 0 mm 1 m/S 572 mmHg 96%
    01:00 -3°C° 0 mm 1 m/S 572 mmHg 96%
    02:00 -3°C° 0 mm 1 m/S 572 mmHg 96%
    03:00 -3°C° 0 mm 1 m/S 571 mmHg 97%
    04:00 -3°C° 0 mm 1 m/S 571 mmHg 97%
    05:00 -3°C° 0.1 mm 1 m/S 571 mmHg 97%
    06:00 -5°C° 0.1 mm 2 m/S 571 mmHg 97%
    07:00 -5°C° 0.1 mm 2 m/S 571 mmHg 97%
    08:00 -4°C° 0.1 mm 2 m/S 571 mmHg 95%
    09:00 -4°C° 0.1 mm 2 m/S 571 mmHg 94%
    10:00 -4°C° 0.1 mm 3 m/S 572 mmHg 92%
    11:00 -4°C° 0.1 mm 3 m/S 571 mmHg 92%
    12:00 -4°C° 0.1 mm 3 m/S 571 mmHg 92%
    13:00 -4°C° 0.1 mm 3 m/S 571 mmHg 91%
    14:00 -5°C° 0.2 mm 3 m/S 570 mmHg 91%
    15:00 -5°C° 0.2 mm 3 m/S 570 mmHg 90%
    16:00 -6°C° 0.2 mm 3 m/S 569 mmHg 89%
    17:00 -7°C° 0.6 mm 3 m/S 569 mmHg 91%
    18:00 -9°C° 0.6 mm 4 m/S 569 mmHg 93%
    19:00 -11°C° 0.6 mm 4 m/S 569 mmHg 94%
    20:00 -11°C° 0.6 mm 4 m/S 569 mmHg 94%
    21:00 -12°C° 0.6 mm 4 m/S 569 mmHg 94%
    22:00 -14°C° 0.6 mm 4 m/S 569 mmHg 94%
    23:00 -15°C° 0.2 mm 4 m/S 569 mmHg 94%

    übermorgen, 26 März, Dienstag

    Zeit Temperatur Niederschläge Wind Luftdruck Luftfeuchtigkeit
    00:00 -14°C° 0.2 mm 3 m/S 569 mmHg 94%
    01:00 -15°C° 0.2 mm 3 m/S 569 mmHg 94%
    02:00 -15°C° 0.2 mm 3 m/S 570 mmHg 94%
    03:00 -15°C° 0.2 mm 3 m/S 570 mmHg 93%
    04:00 -15°C° 0.2 mm 3 m/S 571 mmHg 92%
    05:00 -15°C° 0.1 mm 3 m/S 571 mmHg 93%
    06:00 -15°C° 0.1 mm 3 m/S 571 mmHg 93%
    07:00 -15°C° 0.1 mm 3 m/S 571 mmHg 93%
    08:00 -14°C° 0 mm 3 m/S 572 mmHg 87%
    09:00 -13°C° 0 mm 3 m/S 573 mmHg 81%
    10:00 -12°C° 0 mm 3 m/S 573 mmHg 76%
    11:00 -10°C° 0 mm 3 m/S 574 mmHg 75%
    12:00 -9°C° 0 mm 3 m/S 574 mmHg 75%
    13:00 -8°C° 0 mm 3 m/S 574 mmHg 74%
    14:00 -8°C° 0 mm 3 m/S 574 mmHg 75%
    15:00 -8°C° 0 mm 3 m/S 574 mmHg 76%
    16:00 -8°C° 0 mm 3 m/S 574 mmHg 77%
    17:00 -9°C° 0 mm 2 m/S 573 mmHg 82%
    18:00 -10°C° 0 mm 2 m/S 573 mmHg 87%
    19:00 -13°C° 0 mm 2 m/S 572 mmHg 92%
    20:00 -12°C° 0 mm 1 m/S 572 mmHg 92%
    21:00 -13°C° 0 mm 1 m/S 572 mmHg 93%
    22:00 -13°C° 0 mm 1 m/S 572 mmHg 93%
    23:00 -14°C° 0 mm 1 m/S 571 mmHg 89%

    27 März, Mittwoch

    Zeit Temperatur Niederschläge Wind Luftdruck Luftfeuchtigkeit
    00:00 -14°C° 0 mm 1 m/S 571 mmHg 84%
    01:00 -14°C° 0 mm 1 m/S 571 mmHg 80%
    02:00 -13°C° 0 mm 1 m/S 572 mmHg 76%
    03:00 -13°C° 0 mm 1 m/S 572 mmHg 72%
    04:00 -12°C° 0 mm 1 m/S 572 mmHg 68%
    05:00 -12°C° 0 mm 1 m/S 572 mmHg 69%
    06:00 -11°C° 0 mm 1 m/S 573 mmHg 70%
    07:00 -13°C° 0 mm 2 m/S 573 mmHg 71%
    08:00 -10°C° 0 mm 2 m/S 574 mmHg 70%
    09:00 -9°C° 0 mm 2 m/S 575 mmHg 69%
    10:00 -7°C° 0 mm 2 m/S 576 mmHg 68%
    11:00 -6°C° 0 mm 2 m/S 576 mmHg 73%
    12:00 -6°C° 0 mm 2 m/S 576 mmHg 78%
    13:00 -5°C° 0 mm 2 m/S 576 mmHg 83%
    14:00 -5°C° 0.1 mm 2 m/S 576 mmHg 83%
    15:00 -5°C° 0.1 mm 2 m/S 576 mmHg 84%
    16:00 -5°C° 0.1 mm 2 m/S 576 mmHg 85%
    17:00 -6°C° 0 mm 2 m/S 575 mmHg 88%
    18:00 -7°C° 0 mm 2 m/S 575 mmHg 91%
    19:00 -8°C° 0 mm 2 m/S 575 mmHg 94%
    20:00 -9°C° 0 mm 2 m/S 575 mmHg 94%
    21:00 -9°C° 0 mm 1 m/S 575 mmHg 94%
    22:00 -9°C° 0 mm 1 m/S 575 mmHg 94%
    23:00 -10°C° 0 mm 1 m/S 575 mmHg 93%

    28 März, Donnerstag

    Zeit Temperatur Niederschläge Wind Luftdruck Luftfeuchtigkeit
    00:00 -11°C° 0 mm 1 m/S 574 mmHg 92%
    01:00 -12°C° 0 mm 1 m/S 574 mmHg 90%
    02:00 -12°C° 0 mm 1 m/S 574 mmHg 87%
    03:00 -12°C° 0 mm 1 m/S 574 mmHg 84%
    04:00 -12°C° 0 mm 1 m/S 574 mmHg 82%
    05:00 -11°C° 0 mm 1 m/S 574 mmHg 80%
    06:00 -11°C° 0 mm 1 m/S 574 mmHg 79%
    07:00 -11°C° 0 mm 1 m/S 574 mmHg 78%
    08:00 -9°C° 0 mm 2 m/S 575 mmHg 77%
    09:00 -7°C° 0 mm 2 m/S 576 mmHg 76%
    10:00 -5°C° 0 mm 2 m/S 577 mmHg 75%
    11:00 -5°C° 0 mm 2 m/S 577 mmHg 77%
    12:00 -4°C° 0 mm 2 m/S 577 mmHg 80%
    13:00 -4°C° 0 mm 2 m/S 577 mmHg 82%
    14:00 -4°C° 0 mm 2 m/S 577 mmHg 82%
    15:00 -4°C° 0 mm 2 m/S 577 mmHg 82%
    16:00 -4°C° 0 mm 2 m/S 577 mmHg 81%
    17:00 -5°C° 0 mm 2 m/S 576 mmHg 85%
    18:00 -6°C° 0 mm 2 m/S 576 mmHg 88%
    19:00 -7°C° 0 mm 1 m/S 575 mmHg 92%
    20:00 -7°C° 0 mm 1 m/S 575 mmHg 91%
    21:00 -8°C° 0 mm 1 m/S 575 mmHg 91%
    22:00 -9°C° 0 mm 1 m/S 575 mmHg 90%
    23:00 -9°C° 0 mm 1 m/S 575 mmHg 88%

    29 März, Freitag

    Zeit Temperatur Niederschläge Wind Luftdruck Luftfeuchtigkeit
    00:00 -9°C° 0 mm 1 m/S 575 mmHg 85%
    01:00 -9°C° 0 mm 1 m/S 575 mmHg 82%
    02:00 -9°C° 0 mm 1 m/S 575 mmHg 81%
    03:00 -9°C° 0 mm 1 m/S 575 mmHg 80%
    04:00 -9°C° 0 mm 1 m/S 574 mmHg 79%
    05:00 -9°C° 0 mm 1 m/S 575 mmHg 78%
    06:00 -9°C° 0 mm 1 m/S 575 mmHg 77%
    07:00 -8°C° 0 mm 1 m/S 575 mmHg 76%
    08:00 -6°C° 0 mm 1 m/S 576 mmHg 73%
    09:00 -3°C° 0 mm 1 m/S 577 mmHg 70%
    10:00 -2°C° 0 mm 0 m/S 578 mmHg 67%
    11:00 -1°C° 0 mm 0 m/S 578 mmHg 67%
    12:00 -1°C° 0 mm 0 m/S 578 mmHg 67%
    13:00 0°C° 0 mm 0 m/S 578 mmHg 68%
    14:00 +1°C° 0 mm 1 m/S 578 mmHg 69%
    15:00 +1°C° 0 mm 1 m/S 577 mmHg 70%
    16:00 +1°C° 0 mm 1 m/S 577 mmHg 71%
    17:00 -1°C° 0 mm 1 m/S 576 mmHg 76%
    18:00 -3°C° 0 mm 1 m/S 575 mmHg 81%
    19:00 -6°C° 0 mm 0 m/S 574 mmHg 86%
    20:00 -6°C° 0 mm 1 m/S 575 mmHg 84%
    21:00 -6°C° 0 mm 1 m/S 575 mmHg 81%
    22:00 -7°C° 0 mm 2 m/S 575 mmHg 79%
    23:00 -7°C° 0 mm 2 m/S 575 mmHg 79%
    Mehr zeigen